STARLINK-11566, 62914

Orbit data source: Space-Track

STARLINK-11566, 62914 is a payload satellite owned by SpaceX/Seattle (US) in LEO that was launched on Sat, 08 Feb 2025 UTC via an FALCON 9 launch vehicle from the Air Force Eastern Test Range (AFETR). Payload-class satellites include a variety of spacecraft equipped with specific instruments for various scientific and technological missions. These include communications satellites like Starlink; space stations such as the ISS; scientific satellites like the Hubble; Earth observation satellites from companies like Planet Labs, Umbra, and HawkEye 360; GPS; miniature CubeSats for education and research; and military/defense satellites.

Loading next visibility...
Identifier
62914, 2025-027H
Orbit
LEO
Last TLE update
1 day ago
Origin
Manufacturer
SpaceX/Seattle
Mission
Operational Commercial Communications
Bus & Motor
STARLINK V2M, Unknown motor
Mass
730 kg wet, ~700 kg dry
Launch date (UTC)
2025-02-08 (3 months ago)
Launch vehicle
FALCON 9
Launch site
Air Force Eastern Test Range (AFETR)
Object type
Payload
Rocket body
Debris
Shape & HBR
Box + 2 Pan, 29 m
Radar Cross Section
36.964 m², Large (>1 m²)

Expand to show TLE details & history

TLE from 1 day ago
0 STARLINK-11566
1 62914U 25027H   25128.07361544  .00001509  00000-0  15255-4 0  9993
2 62914  43.0011  30.0901 0001384 267.4059  92.6651 15.70830059 15121
Epoch: 2025-05-08T01:46Z
Definitive object data (Epoch: 2025-05-08T01:46:00.374Z)
Latitude
0.00005°
Longitude
137.43926°
Altitude
356.338 km
Speed
7.697 km/s
True Right ascension
02h 00m 21s
True Declination
0° 00' 00"
Sunlit
Object was in daylight at TLE epoch
Visualization TLE readout
Latitude
-8.1845°
Longitude
121.34481°
Altitude
357.422 km
Speed
7.696 km/s
Apparent Right ascension
01h 44m 42s
Apparent Declination
-24° 08' 24"
Sunlit
Object is in daylight
Visualization observer readout
Local Sidereal Time
14:51:28
Azimuth
46.673° ENE
Elevation
-68.883°
Doppler factor
1
Orbital elements
Apogee altitude
359.437 km
Perigee altitude
357.573 km
Semi-major axis
6,736.642 km
Eccentricity
0.0001384
Inclination
43.0011°
RAAN
30.0901°
Arg. of periapsis
267.4059°
True anomaly
92.68094°
Mean anomaly
92.6651°
Eccentric anomaly
92.67302°
Mean motion
3.92535 °/min
BSTAR
0.000015255
Orbital period
91.71 mins
Loading maneuver chart data...
Loading SW <> Apogee altitude chart data...
Loading historical data...
Loading historical data...
Loading historical data...
Loading historical data...
Loading historical data...
Loading historical data...
Loading historical data...

STARLINK-11566 Visibility forecast

Observer location: undefined°, undefined°

Span
Click to sort rows by Start time (UTC) header in descending order
Start Az.
Max El. time (UTC)
Max El. Az.
Max El.
End time (UTC)
End Az.
5 mins2025-05-09 20:43:35.431Z230.866° WSW2025-05-09 20:45:35.431Z183.201° SSW37.104°2025-05-09 20:48:35.431Z78.813° E
4 mins2025-05-09 22:20:35.431Z288.058° WNW2025-05-09 22:21:35.431Z319.492° NNW34.288°2025-05-09 22:24:35.431Z67.494° ENE
4 mins2025-05-09 23:56:35.431Z298.088° NW2025-05-09 23:58:35.431Z27.933° NE38.046°2025-05-10 00:00:35.431Z85.15° E
|